Weather History for Cape Girardeau, MO

Change the Weather History Date:

Thursday, April 4, 2013

  Actual Average Record
Temperature  
Mean Temperature 47 °F 53 °F  
Max Temperature 59 °F 65 °F 81 °F (1978)
Min Temperature 34 °F 41 °F 26 °F (1987)
Degree Days  
Heating Degree Days 18 12  
Month to date heating degree days 84 51  
Since 1 July heating degree days 4045 4107  
Cooling Degree Days 0 0  
Month to date cooling degree days 0 0  
Year to date cooling degree days 0 4  
Moisture  
Dew Point 28 °F    
Average Humidity 55    
Maximum Humidity 82    
Minimum Humidity 28    
Precipitation  
Precipitation 0.00 in 0.13 in 1.12 in (1986)
Month to date precipitation 0.00 0.55  
Year to date precipitation 9.17 11.83  
Sea Level Pressure  
Sea Level Pressure 30.09 in    
Wind  
Wind Speed 4 mph (NNE)    
Max Wind Speed 13 mph    
Max Gust Speed 18 mph    
Visibility 10 miles    
Events      
T = Trace of Precipitation, MM = Missing Value Source: NWS Daily Summary

Daily Weather History Graph

Daily Weather History Graph

Search for Another Location

Airport:

Trip Planner

Search our weather history database for the weather conditions in past years. The results will help you decide how hot, cold, wet, or windy it might be!

Date:

Astronomy

Apr. 04, 2013 Rise Set
Actual Time 6:39 AM CDT 7:23 PM CDT
Civil Twilight 6:12 AM CDT 7:50 PM CDT
Nautical Twilight 5:41 AM CDT 8:21 PM CDT
Astronomical Twilight 5:09 AM CDT 8:53 PM CDT
Moon 2:58 AM CDT (4/4) 1:49 PM CDT (4/4)
Length of Visible Light 13h 37m
Length of Day
12h 44m
Waning Crescent, 33% of the Moon is Illuminated
Apr 4
Waning Crescent
Apr 10
New
Apr 18
First Quarter
Apr 25
Full
May 2
Last Quarter

Hourly Weather History & Observations

Time (CDT) Temp. Windchill Dew Point Humidity Pressure Visibility Wind Dir Wind Speed Gust Speed Precip Events Conditions
12:53 AM 42.1 °F 37.7 °F 25.0 °F 51% 30.21 in 10.0 mi NNE 6.9 mph - N/A   Clear
1:53 AM 39.0 °F 34.8 °F 25.0 °F 57% 30.19 in 10.0 mi NNE 5.8 mph - N/A   Clear
2:53 AM 39.0 °F 34.8 °F 26.1 °F 60% 30.15 in 10.0 mi NNE 5.8 mph - N/A   Clear
3:53 AM 39.9 °F 36.7 °F 26.1 °F 58% 30.15 in 10.0 mi NNE 4.6 mph - N/A   Clear
4:53 AM 41.0 °F 35.2 °F 25.0 °F 53% 30.13 in 10.0 mi NE 9.2 mph - N/A   Clear
5:53 AM 37.9 °F 32.7 °F 26.1 °F 62% 30.13 in 10.0 mi NE 6.9 mph - N/A   Clear
6:53 AM 37.0 °F 32.4 °F 25.0 °F 62% 30.13 in 10.0 mi NNE 5.8 mph - N/A   Clear
7:53 AM 41.0 °F 35.8 °F 25.0 °F 53% 30.14 in 10.0 mi NNE 8.1 mph - N/A   Overcast
8:53 AM 43.0 °F 37.2 °F 24.1 °F 47% 30.14 in 10.0 mi NE 10.4 mph - N/A   Overcast
9:53 AM 46.9 °F - 24.1 °F 41% 30.13 in 10.0 mi NE 9.2 mph - N/A   Overcast
10:53 AM 51.1 °F - 26.1 °F 38% 30.12 in 10.0 mi NNE 8.1 mph - N/A   Overcast
11:53 AM 54.0 °F - 25.0 °F 33% 30.10 in 10.0 mi Variable 5.8 mph - N/A   Mostly Cloudy
12:53 PM 55.0 °F - 25.0 °F 31% 30.08 in 10.0 mi Calm Calm - N/A   Overcast
1:53 PM 55.9 °F - 26.1 °F 32% 30.06 in 10.0 mi ESE 6.9 mph - N/A   Overcast
2:53 PM 54.0 °F - 30.0 °F 40% 30.04 in 10.0 mi South 3.5 mph - N/A   Overcast
3:53 PM 57.0 °F - 28.0 °F 33% 30.03 in 10.0 mi Calm Calm - N/A   Clear
4:53 PM 57.9 °F - 28.0 °F 32% 30.02 in 10.0 mi Calm Calm - N/A   Clear
5:53 PM 59.0 °F - 27.0 °F 29% 30.01 in 10.0 mi Calm Calm - N/A   Clear
6:53 PM 53.1 °F - 36.0 °F 52% 30.02 in 10.0 mi WSW 3.5 mph - N/A   Clear
7:53 PM 50.0 °F - 35.1 °F 57% 30.02 in 10.0 mi West 3.5 mph - N/A   Clear
8:53 PM 44.1 °F - 34.0 °F 68% 30.03 in 10.0 mi Calm Calm - N/A   Clear
9:53 PM 41.0 °F - 33.1 °F 73% 30.05 in 10.0 mi Calm Calm - N/A   Clear
10:53 PM 39.0 °F - 33.1 °F 79% 30.06 in 10.0 mi Calm Calm - N/A   Clear
11:53 PM 37.9 °F - 32.0 °F 79% 30.06 in 10.0 mi Calm Calm - N/A   Clear